TimeCDT,TemperatureF,Dew PointF,Humidity,Sea Level PressureIn,VisibilityMPH,Wind Direction,Wind SpeedMPH,Gust SpeedMPH,PrecipitationIn,Events,Conditions,WindDirDegrees,DateUTC
12:15 AM,51.8,39.2,62,30.24,10.0,ESE,6.9,-,N/A,,Overcast,110,2012-10-05 05:15:00
12:35 AM,51.8,39.2,62,30.24,10.0,East,5.8,-,N/A,,Overcast,100,2012-10-05 05:35:00
12:55 AM,51.8,37.4,58,30.23,10.0,East,8.1,-,N/A,,Overcast,90,2012-10-05 05:55:00
1:15 AM,51.8,37.4,58,30.23,10.0,East,5.8,-,N/A,,Overcast,100,2012-10-05 06:15:00
1:55 AM,50.0,37.4,62,30.23,10.0,East,5.8,-,N/A,,Overcast,90,2012-10-05 06:55:00
2:15 AM,50.0,37.4,62,30.22,10.0,East,6.9,-,N/A,,Overcast,100,2012-10-05 07:15:00
2:35 AM,50.0,37.4,62,30.21,10.0,East,6.9,-,N/A,,Mostly Cloudy,100,2012-10-05 07:35:00
2:55 AM,48.2,37.4,66,30.21,10.0,East,8.1,-,N/A,,Clear,100,2012-10-05 07:55:00
3:15 AM,48.2,37.4,66,30.20,10.0,ESE,8.1,-,N/A,,Clear,110,2012-10-05 08:15:00
3:35 AM,46.4,37.4,71,30.19,10.0,East,6.9,-,N/A,,Clear,100,2012-10-05 08:35:00
3:55 AM,46.4,37.4,71,30.19,10.0,East,10.4,-,N/A,,Clear,100,2012-10-05 08:55:00
4:15 AM,46.4,35.6,66,30.18,10.0,East,8.1,-,N/A,,Clear,100,2012-10-05 09:15:00
4:35 AM,46.4,35.6,66,30.19,10.0,East,6.9,-,N/A,,Clear,100,2012-10-05 09:35:00
4:55 AM,44.6,35.6,71,30.19,10.0,East,6.9,-,N/A,,Clear,90,2012-10-05 09:55:00
5:15 AM,44.6,35.6,71,30.19,10.0,East,6.9,-,N/A,,Clear,80,2012-10-05 10:15:00
5:35 AM,44.6,35.6,71,30.19,10.0,East,8.1,-,N/A,,Clear,80,2012-10-05 10:35:00
5:55 AM,44.6,35.6,71,30.19,10.0,East,9.2,-,N/A,,Clear,90,2012-10-05 10:55:00
6:35 AM,42.8,35.6,76,30.19,10.0,East,8.1,-,N/A,,Clear,90,2012-10-05 11:35:00
6:55 AM,42.8,35.6,76,30.19,10.0,East,8.1,-,N/A,,Clear,80,2012-10-05 11:55:00
7:15 AM,42.8,35.6,76,30.20,10.0,East,9.2,-,N/A,,Clear,90,2012-10-05 12:15:00
7:35 AM,42.8,35.6,76,30.20,10.0,East,9.2,-,N/A,,Clear,100,2012-10-05 12:35:00
7:55 AM,42.8,35.6,76,30.20,10.0,East,8.1,-,N/A,,Clear,100,2012-10-05 12:55:00
8:15 AM,42.8,35.6,76,30.20,10.0,East,8.1,-,N/A,,Clear,100,2012-10-05 13:15:00
8:35 AM,42.8,35.6,76,30.19,10.0,East,8.1,-,N/A,,Clear,100,2012-10-05 13:35:00
8:55 AM,44.6,35.6,71,30.19,10.0,East,10.4,-,N/A,,Clear,100,2012-10-05 13:55:00
9:15 AM,44.6,33.8,66,30.20,10.0,East,13.8,-,N/A,,Clear,100,2012-10-05 14:15:00
9:35 AM,46.4,33.8,62,30.21,10.0,East,12.7,-,N/A,,Clear,90,2012-10-05 14:35:00
9:55 AM,48.2,35.6,62,30.21,10.0,East,11.5,-,N/A,,Clear,100,2012-10-05 14:55:00
10:15 AM,50.0,33.8,54,30.21,10.0,East,12.7,-,N/A,,Clear,80,2012-10-05 15:15:00
10:35 AM,50.0,33.8,54,30.22,10.0,East,12.7,-,N/A,,Clear,90,2012-10-05 15:35:00
10:55 AM,51.8,35.6,54,30.22,10.0,East,10.4,18.4,N/A,,Mostly Cloudy,80,2012-10-05 15:55:00
11:15 AM,51.8,35.6,54,30.21,10.0,East,11.5,16.1,N/A,,Mostly Cloudy,100,2012-10-05 16:15:00
11:35 AM,53.6,35.6,51,30.21,10.0,East,11.5,17.3,N/A,,Mostly Cloudy,90,2012-10-05 16:35:00
11:55 AM,53.6,35.6,51,30.22,10.0,ENE,11.5,-,N/A,,Overcast,70,2012-10-05 16:55:00
12:15 PM,53.6,35.6,51,30.21,10.0,ENE,12.7,-,N/A,,Overcast,60,2012-10-05 17:15:00
12:35 PM,55.4,35.6,47,30.22,10.0,ENE,10.4,17.3,N/A,,Overcast,70,2012-10-05 17:35:00
12:55 PM,55.4,35.6,47,30.21,10.0,ENE,13.8,-,N/A,,Overcast,70,2012-10-05 17:55:00
1:15 PM,55.4,35.6,47,30.21,10.0,ENE,12.7,16.1,N/A,,Overcast,60,2012-10-05 18:15:00
1:35 PM,55.4,35.6,47,30.19,10.0,ENE,13.8,18.4,N/A,,Overcast,60,2012-10-05 18:35:00
1:55 PM,55.4,35.6,47,30.19,10.0,ENE,10.4,18.4,N/A,,Overcast,60,2012-10-05 18:55:00
2:15 PM,55.4,35.6,47,30.18,10.0,ENE,15.0,-,N/A,,Overcast,60,2012-10-05 19:15:00
2:35 PM,55.4,35.6,47,30.17,10.0,ENE,16.1,19.6,N/A,,Overcast,70,2012-10-05 19:35:00
3:15 PM,57.2,35.6,44,30.16,10.0,East,9.2,-,N/A,,Overcast,80,2012-10-05 20:15:00
3:55 PM,57.2,35.6,44,30.15,10.0,ENE,9.2,-,N/A,,Overcast,70,2012-10-05 20:55:00
4:15 PM,59.0,35.6,42,30.15,10.0,ENE,15.0,-,N/A,,Overcast,70,2012-10-05 21:15:00
4:35 PM,59.0,35.6,42,30.14,10.0,ENE,11.5,17.3,N/A,,Overcast,70,2012-10-05 21:35:00
4:55 PM,59.0,35.6,42,30.14,10.0,NE,12.7,-,N/A,,Overcast,50,2012-10-05 21:55:00
5:15 PM,57.2,35.6,44,30.15,10.0,ENE,11.5,16.1,N/A,,Mostly Cloudy,70,2012-10-05 22:15:00
5:35 PM,55.4,35.6,47,30.16,10.0,East,13.8,-,N/A,,Overcast,80,2012-10-05 22:35:00
5:55 PM,55.4,35.6,47,30.16,10.0,ENE,16.1,-,N/A,,Mostly Cloudy,70,2012-10-05 22:55:00
6:15 PM,53.6,35.6,51,30.16,10.0,East,15.0,19.6,N/A,,Scattered Clouds,80,2012-10-05 23:15:00
6:35 PM,53.6,33.8,47,30.17,10.0,ENE,17.3,-,N/A,,Mostly Cloudy,70,2012-10-05 23:35:00
6:55 PM,51.8,33.8,50,30.17,10.0,ENE,13.8,-,N/A,,Mostly Cloudy,70,2012-10-05 23:55:00
7:15 PM,51.8,33.8,50,30.18,10.0,ENE,12.7,-,N/A,,Mostly Cloudy,70,2012-10-06 00:15:00
7:55 PM,50.0,33.8,54,30.19,10.0,ENE,10.4,-,N/A,,Mostly Cloudy,70,2012-10-06 00:55:00
8:15 PM,50.0,33.8,54,30.19,10.0,East,10.4,-,N/A,,Overcast,80,2012-10-06 01:15:00
8:35 PM,50.0,33.8,54,30.20,10.0,East,12.7,-,N/A,,Overcast,80,2012-10-06 01:35:00
8:55 PM,50.0,33.8,54,30.21,10.0,East,10.4,-,N/A,,Overcast,90,2012-10-06 01:55:00
9:15 PM,50.0,32.0,50,30.22,10.0,East,17.3,-,N/A,,Overcast,90,2012-10-06 02:15:00
9:35 PM,50.0,32.0,50,30.23,10.0,East,15.0,23.0,N/A,,Overcast,90,2012-10-06 02:35:00
9:55 PM,50.0,32.0,50,30.23,10.0,East,20.7,24.2,N/A,,Overcast,90,2012-10-06 02:55:00
10:15 PM,50.0,32.0,50,30.24,10.0,East,16.1,24.2,N/A,,Overcast,90,2012-10-06 03:15:00
10:35 PM,48.2,32.0,54,30.25,10.0,East,17.3,-,N/A,,Overcast,80,2012-10-06 03:35:00
10:55 PM,48.2,32.0,54,30.26,10.0,East,15.0,18.4,N/A,,Overcast,90,2012-10-06 03:55:00
11:15 PM,48.2,32.0,54,30.26,10.0,East,17.3,-,N/A,,Overcast,80,2012-10-06 04:15:00
11:35 PM,46.4,32.0,57,30.25,10.0,East,13.8,19.6,N/A,,Overcast,90,2012-10-06 04:35:00
11:55 PM,46.4,30.2,53,30.26,10.0,East,13.8,23.0,N/A,,Overcast,80,2012-10-06 04:55:00